Wind_Speed
14 13 15 20 11 13 20 16 15 14 20 28 25 23 18 20 23 32 12 26 26 26 32 26 29 24 20 23 27 31 33 37 39 40 39 40 40 43 48 51 50 46 45 44
7 13 12 9 7 5 15 16 14 15 17 21 27 33 16 21 25 30 25 29 26 29 33 29 26 25 17 20 27 32 34 37 41 41 40 39 41 47 52 51 52 52 50 49
12 10 10 1 7 7 12 13 15 23 21 25 24 31 24 21 18 20 30 34 31 31 31 27 25 25 19 22 27 32 34 38 43 42 39 40 45 50 47 49 47 46 46 44
11 13 12 8 15 8 10 14 21 20 19 25 31 19 16 13 24 21 29 41 38 33 34 28 28 30 23 25 30 34 36 40 42 40 37 41 47 49 47 46 47 46 45 38
7 3 14 13 15 17 17 19 12 14 17 15 26 23 22 22 17 16 25 38 40 38 40 39 38 33 28 31 33 35 37 41 41 38 39 45 49 48 46 45 47 44 39 36
12 9 16 18 18 18 14 18 22 17 20 20 30 25 30 25 26 27 33 42 46 49 47 42 39 33 28 30 32 35 38 42 43 39 41 46 48 46 44 46 45 42 36 33
14 10 20 21 18 18 15 19 10 11 22 27 24 24 27 26 30 32 36 42 44 45 42 34 33 28 27 29 32 34 38 39 40 38 40 46 48 45 41 45 41 37 34 29
19 15 18 14 12 17 14 14 15 9 13 20 28 22 29 23 34 32 35 36 39 41 35 22 24 24 27 30 33 34 38 38 37 37 41 46 47 43 40 42 39 38 33 31
13 21 21 16 11 11 11 7 8 4 5 14 14 23 20 27 32 33 33 32 40 37 21 19 20 25 29 30 33 35 39 38 38 37 40 45 46 43 39 40 39 37 34 32
16 16 5 11 14 8 6 6 3 8 11 8 19 23 12 24 31 34 35 37 39 29 23 21 22 26 30 31 34 37 39 38 38 38 40 44 44 43 37 37 38 36 34 32
15 8 11 12 13 10 11 6 6 10 12 12 19 24 23 24 29 27 30 36 35 27 25 24 23 26 27 30 33 36 38 36 36 37 39 42 44 43 36 35 35 36 35 33
19 11 16 15 12 15 11 8 6 9 12 10 15 17 25 26 23 25 23 33 26 23 24 23 25 26 26 29 32 35 39 35 35 36 38 41 43 42 39 33 34 34 33 33
28 24 15 19 21 9 7 9 11 7 9 12 12 14 19 20 23 12 32 32 23 18 21 23 25 26 26 28 31 34 36 36 35 36 37 40 42 41 40 36 32 32 31 30
26 32 27 19 8 7 7 12 13 10 8 12 18 19 21 20 19 19 25 36 27 19 19 22 25 24 25 28 30 32 34 37 35 34 36 38 40 41 39 40 36 30 29 28
25 27 29 13 7 14 15 10 16 16 14 14 21 23 22 25 27 25 30 34 24 17 19 22 24 24 25 27 30 31 32 36 36 34 34 35 38 41 40 39 39 36 29 28
25 23 23 17 11 13 11 10 16 12 8 10 17 20 23 27 28 26 27 28 24 20 19 21 24 24 25 27 30 31 32 34 37 34 33 34 36 40 40 38 37 39 37 32
19 20 23 17 17 14 11 11 8 13 21 17 15 17 18 23 25 25 25 25 25 21 19 21 22 22 23 26 29 31 32 33 37 37 34 34 34 36 40 40 37 37 38 36
15 21 21 12 20 11 11 12 14 17 17 13 14 18 19 22 24 25 26 27 27 23 19 20 22 21 22 26 30 31 32 33 35 38 35 33 34 34 36 39 39 36 37 38
15 18 17 20 16 10 19 17 8 12 17 15 15 17 18 21 24 23 26 26 26 24 21 21 24 22 22 25 28 30 31 33 35 37 37 34 33 34 34 35 39 39 35 36
18 18 21 18 21 17 20 23 19 21 21 16 17 17 18 20 22 23 23 25 26 25 19 19 22 22 21 23 26 29 31 32 34 36 39 37 34 33 33 34 35 37 37 34
26 27 23 20 21 24 27 28 23 22 23 22 22 19 18 20 23 24 24 25 25 26 24 20 22 22 21 22 25 27 29 31 33 35 37 38 37 35 33 33 34 34 36 38
32 27 26 24 22 27 29 30 27 25 25 23 23 23 21 21 23 24 24 26 26 26 25 21 23 24 23 23 24 26 28 30 32 35 37 38 38 38 36 35 34 34 34 34
28 21 20 25 24 25 26 30 28 28 24 23 25 25 24 22 22 23 25 26 29 28 28 25 23 24 24 23 24 25 28 29 32 34 36 38 39 40 40 38 36 35 34 33
16 13 7 13 21 22 30 25 29 32 29 26 26 26 27 26 24 25 25 26 29 33 32 29 27 22 23 23 23 24 27 30 32 35 37 38 37 37 39 42 40 37 36 36
23 26 18 24 21 25 26 25 26 23 26 25 23 24 25 26 27 25 27 28 30 31 32 30 27 23 22 23 25 25 27 30 33 35 37 38 38 37 38 39 39 39 37 35
27 28 30 30 25 25 29 29 28 26 24 23 22 22 23 25 27 26 28 30 32 33 33 31 28 23 22 22 24 26 28 31 34 37 39 39 40 41 40 39 38 37 38 39
Wind_Direction
74 65 27 350 21 3 25 13 358 345 326 298 299 335 306 351 333 318 35 3 2 6 5 355 359 350 346 343 343 340 343 344 345 341 336 331 328 325 323 323 323 321 317 309
58 72 68 299 0 297 265 287 282 305 296 316 315 329 340 337 343 354 354 350 4 6 0 353 351 351 342 345 342 342 345 347 345 342 338 334 331 329 331 331 330 325 321 317
27 35 322 202 268 334 321 278 292 317 314 322 310 307 308 323 346 9 359 357 9 8 356 345 349 352 348 350 346 342 348 350 345 343 341 336 337 337 337 333 333 332 333 328
347 293 261 224 264 233 262 301 310 317 310 306 304 333 339 300 340 359 348 352 2 355 355 351 352 359 352 351 348 347 352 349 346 345 342 342 339 341 340 340 344 342 345 338
285 220 266 268 260 283 277 306 315 334 352 310 323 357 349 7 11 357 351 357 349 348 354 355 357 358 353 349 349 351 350 349 348 348 347 345 344 346 346 349 351 351 358 4
195 276 266 261 284 291 315 299 303 333 330 330 335 356 8 7 2 3 355 356 349 349 352 353 351 352 350 348 349 349 349 351 351 350 348 347 349 351 352 353 357 358 358 4
184 236 273 283 279 294 314 296 309 347 320 344 351 351 353 6 359 2 4 352 346 346 348 348 343 345 346 347 351 352 353 353 352 350 349 350 353 354 357 0 5 2 6 9
195 204 252 268 297 326 329 315 332 4 1 354 340 343 343 347 357 356 348 349 341 346 349 353 345 344 347 349 352 355 357 355 354 351 353 354 357 357 1 5 6 8 8 8
242 206 221 276 298 319 329 329 322 351 355 319 321 320 325 331 348 347 344 350 348 357 13 3 354 346 347 354 353 358 1 357 358 354 355 358 358 359 3 7 10 14 13 15
247 255 157 298 317 302 308 300 290 333 330 314 325 325 346 336 348 349 344 348 348 357 3 1 355 348 349 356 356 360 2 357 358 356 356 359 0 2 2 8 13 16 15 11
244 204 177 241 287 308 321 322 353 328 332 324 309 317 315 336 349 343 345 343 344 345 354 356 351 349 355 356 357 1 3 359 359 359 359 360 2 4 0 6 10 15 16 13
239 239 228 241 271 292 292 289 313 318 319 321 313 326 326 338 328 326 351 337 342 348 343 348 351 350 358 355 358 1 4 2 1 3 0 0 4 5 3 0 7 10 10 11
246 239 255 260 255 264 290 320 326 324 322 314 325 314 313 329 330 296 333 334 349 341 337 345 351 353 356 357 359 2 5 3 3 4 4 1 4 6 5 1 360 5 7 7
242 244 244 242 257 260 350 329 318 325 331 320 325 331 331 330 336 338 333 341 346 342 337 341 347 353 354 358 359 1 4 6 4 6 5 2 3 6 7 6 4 358 360 2
243 238 237 230 281 299 295 247 277 298 311 312 324 333 336 339 338 341 345 338 337 329 330 337 344 351 352 357 359 360 2 6 7 5 7 5 3 5 9 7 7 6 356 356
233 229 228 213 224 261 280 285 276 285 313 326 323 324 335 335 337 337 335 341 328 317 326 335 342 347 349 354 358 359 360 3 8 6 7 9 6 4 8 10 7 8 6 359
229 217 225 213 231 241 242 297 293 307 309 315 316 331 326 326 337 337 338 342 335 324 325 335 339 341 345 351 355 358 359 360 4 9 6 8 9 7 5 9 10 8 5 6
232 229 223 230 242 286 262 270 278 300 295 302 316 321 326 329 334 339 337 339 338 331 325 329 332 337 342 348 353 355 358 359 359 6 8 7 9 9 7 5 9 10 6 6
237 238 229 231 245 255 267 256 274 263 273 291 304 307 319 326 331 341 336 333 335 334 326 326 329 333 339 344 347 350 354 357 357 1 6 7 8 9 9 9 5 7 8 5
242 248 241 243 242 247 251 263 262 263 271 295 286 295 309 318 322 331 334 331 332 330 323 320 325 327 330 337 341 346 349 352 355 357 2 6 6 8 9 10 10 3 5 7
258 238 242 246 251 256 256 264 274 278 287 294 291 291 303 308 316 326 330 330 331 327 319 315 319 321 325 330 336 341 345 347 352 353 356 1 4 5 6 8 8 9 4 2
268 220 225 224 231 238 252 265 275 275 281 292 294 294 296 302 310 321 323 326 330 327 321 314 313 316 321 323 329 336 342 345 347 351 351 354 357 1 1 2 5 6 8 3
266 264 231 225 240 233 260 270 276 275 290 295 293 291 291 294 302 309 317 322 328 327 323 317 307 307 311 317 324 331 338 341 343 347 349 350 353 355 352 356 359 358 4 8
229 298 282 296 269 285 281 270 268 280 289 292 290 290 290 294 304 311 314 315 319 322 325 321 313 301 304 311 315 324 332 337 339 342 344 346 349 349 349 350 351 351 355 359
296 303 294 277 282 282 292 297 290 290 286 288 285 284 286 293 298 307 310 313 314 319 322 320 312 300 296 304 309 318 327 331 332 335 339 341 342 343 346 347 344 344 345 351
278 275 277 280 277 287 288 291 293 291 277 280 286 281 282 289 297 304 307 309 313 320 319 321 315 302 293 298 304 314 323 325 327 332 335 337 338 340 343 342 340 339 339 344
Height
5943 5942 5941 5946 5949 5942 5937 5942 5939 5931 5930 5928 5927 5926 5926 5923 5916 5905 5882 5904 5908 5902 5897 5894 5891 5887 5883 5878 5874 5871 5866 5858 5851 5843 5836 5827 5819 5810 5801 5792 5782 5774 5765 5755
5943 5943 5945 5950 5948 5949 5948 5944 5942 5941 5939 5936 5935 5927 5928 5921 5913 5912 5912 5913 5906 5898 5895 5893 5891 5886 5882 5878 5872 5867 5862 5855 5847 5840 5831 5822 5813 5803 5791 5780 5770 5760 5750 5740
5944 5942 5949 5950 5948 5946 5943 5941 5941 5937 5935 5932 5933 5930 5922 5921 5915 5908 5909 5907 5900 5898 5898 5893 5887 5883 5877 5875 5871 5864 5859 5852 5843 5834 5826 5817 5807 5796 5786 5776 5765 5753 5742 5730
5945 5949 5948 5947 5945 5945 5939 5940 5939 5935 5935 5931 5923 5926 5926 5926 5918 5907 5904 5899 5896 5899 5893 5890 5885 5876 5873 5870 5867 5860 5855 5848 5839 5831 5822 5812 5802 5793 5782 5770 5759 5748 5736 5723
5947 5947 5945 5945 5944 5943 5942 5938 5940 5938 5934 5931 5929 5926 5925 5919 5917 5909 5909 5898 5898 5896 5889 5880 5876 5873 5868 5865 5862 5857 5851 5844 5834 5826 5817 5807 5797 5787 5776 5764 5752 5741 5731 5721
5946 5944 5944 5944 5943 5941 5942 5936 5935 5932 5931 5927 5922 5918 5917 5913 5910 5903 5901 5895 5888 5883 5880 5876 5873 5871 5869 5865 5861 5854 5847 5839 5829 5821 5813 5804 5794 5783 5772 5760 5748 5739 5729 5720
5942 5946 5942 5941 5941 5938 5939 5936 5934 5932 5925 5924 5918 5914 5912 5910 5908 5903 5897 5895 5889 5885 5882 5879 5874 5871 5868 5864 5859 5853 5845 5837 5828 5819 5811 5801 5790 5779 5769 5759 5747 5738 5728 5721
5940 5941 5941 5939 5939 5937 5934 5933 5931 5929 5927 5922 5916 5915 5912 5908 5905 5902 5900 5900 5893 5889 5884 5878 5874 5871 5868 5862 5857 5852 5844 5835 5827 5817 5808 5798 5787 5777 5767 5758 5748 5739 5730 5723
5935 5937 5936 5939 5938 5936 5934 5932 5930 5928 5926 5923 5922 5920 5914 5911 5908 5905 5903 5901 5892 5887 5882 5878 5874 5870 5866 5861 5855 5849 5841 5832 5824 5816 5807 5797 5786 5776 5767 5759 5749 5739 5732 5725
5933 5935 5935 5935 5934 5933 5931 5930 5929 5927 5924 5921 5919 5917 5911 5913 5908 5904 5902 5897 5891 5887 5883 5879 5875 5870 5863 5859 5853 5846 5839 5831 5822 5814 5805 5796 5786 5775 5767 5758 5749 5740 5733 5726
5933 5932 5931 5933 5933 5933 5933 5929 5927 5925 5923 5921 5916 5914 5913 5909 5907 5906 5902 5896 5891 5886 5883 5879 5875 5869 5864 5859 5853 5846 5839 5831 5822 5814 5804 5795 5786 5776 5767 5758 5750 5742 5734 5727
5929 5929 5930 5931 5933 5933 5930 5929 5926 5924 5923 5920 5917 5914 5908 5907 5906 5903 5902 5898 5891 5886 5882 5879 5874 5869 5864 5858 5852 5845 5838 5831 5822 5814 5804 5795 5785 5776 5767 5759 5751 5743 5736 5728
5928 5927 5928 5929 5932 5930 5928 5927 5924 5922 5920 5919 5917 5915 5911 5909 5908 5904 5900 5894 5889 5887 5882 5877 5873 5868 5863 5857 5851 5844 5837 5829 5822 5812 5804 5795 5786 5777 5768 5759 5751 5744 5737 5729
5924 5926 5927 5928 5930 5929 5927 5926 5924 5921 5919 5917 5913 5911 5908 5909 5908 5904 5898 5886 5884 5884 5881 5877 5872 5866 5861 5856 5849 5843 5836 5829 5821 5813 5804 5795 5787 5779 5769 5760 5751 5744 5738 5731
5920 5921 5925 5927 5925 5925 5926 5925 5923 5921 5919 5916 5912 5910 5908 5905 5901 5897 5890 5887 5884 5883 5881 5876 5870 5866 5861 5854 5848 5841 5835 5828 5820 5813 5805 5797 5787 5778 5770 5762 5753 5745 5738 5731
5914 5919 5922 5923 5922 5923 5922 5922 5921 5920 5919 5917 5914 5911 5907 5902 5898 5894 5892 5888 5883 5881 5878 5873 5869 5864 5860 5854 5848 5841 5835 5828 5821 5813 5805 5797 5788 5779 5771 5763 5755 5747 5739 5731
5913 5916 5916 5920 5919 5919 5919 5919 5918 5917 5916 5914 5913 5912 5908 5902 5900 5897 5892 5888 5883 5879 5875 5871 5866 5863 5858 5853 5847 5840 5835 5828 5820 5812 5805 5798 5790 5781 5772 5764 5756 5749 5741 5733
5908 5911 5914 5916 5916 5915 5916 5916 5917 5915 5913 5912 5911 5908 5906 5901 5898 5895 5890 5884 5880 5875 5872 5870 5865 5861 5856 5851 5846 5840 5833 5827 5820 5812 5805 5797 5790 5782 5774 5766 5758 5750 5742 5734
5906 5908 5910 5911 5912 5914 5910 5913 5915 5913 5911 5910 5908 5906 5903 5899 5893 5891 5887 5882 5877 5873 5869 5866 5863 5858 5853 5848 5844 5838 5832 5825 5819 5811 5804 5797 5790 5783 5775 5767 5759 5751 5744 5736
5902 5903 5906 5908 5909 5909 5908 5906 5908 5907 5907 5907 5905 5902 5899 5896 5892 5888 5885 5879 5874 5870 5867 5864 5859 5855 5851 5847 5842 5836 5831 5824 5818 5811 5804 5797 5790 5783 5776 5768 5761 5753 5746 5738
5896 5896 5900 5903 5905 5903 5903 5902 5904 5904 5906 5902 5900 5897 5895 5892 5889 5886 5881 5877 5872 5867 5863 5860 5857 5852 5848 5844 5839 5834 5829 5823 5816 5810 5803 5796 5789 5783 5776 5769 5762 5754 5748 5740
5890 5889 5890 5894 5897 5898 5897 5897 5899 5899 5898 5896 5894 5893 5890 5887 5884 5882 5877 5873 5870 5865 5860 5856 5853 5848 5845 5841 5837 5832 5826 5821 5815 5808 5802 5795 5789 5782 5775 5768 5762 5756 5748 5741
5884 5884 5883 5889 5892 5891 5895 5896 5895 5894 5893 5893 5889 5887 5885 5882 5880 5878 5873 5869 5864 5860 5855 5851 5848 5845 5841 5837 5833 5828 5823 5818 5813 5806 5800 5794 5787 5779 5774 5768 5761 5756 5750 5743
5881 5880 5880 5884 5886 5887 5887 5890 5889 5886 5885 5887 5884 5881 5879 5876 5872 5871 5868 5863 5858 5853 5849 5845 5842 5839 5836 5833 5830 5825 5820 5815 5810 5804 5798 5792 5786 5780 5773 5764 5759 5754 5748 5741
5878 5876 5879 5881 5883 5883 5880 5882 5882 5882 5879 5878 5879 5876 5873 5871 5866 5866 5862 5858 5854 5849 5845 5840 5836 5832 5831 5828 5824 5821 5816 5812 5806 5801 5796 5790 5784 5778 5771 5764 5758 5752 5746 5740
5874 5875 5876 5877 5880 5880 5877 5875 5873 5873 5870 5871 5871 5870 5868 5866 5861 5860 5856 5851 5847 5843 5839 5834 5830 5827 5825 5822 5820 5816 5812 5807 5802 5797 5791 5786 5780 5773 5768 5762 5756 5750 5743 5736